Regional Weather Roundup
Issued by NWS

Home | Current Version | Previous Version | Text Only | Print | Product List | Glossary Off
Versions: 1 2 3 4 5 6 7 8 9 10 11 12 13 14 15 16 17 18 19 20 21 22 23 24 25 26 27 28 29 30 31 32 33 34 35 36 37 38 39 40 41 42 43 44 45 46 47 48 49 50

000
ASUS43 KLMK 212302
RWRKY
KENTUCKY REGIONAL WEATHER ROUNDUP
NATIONAL WEATHER SERVICE LOUISVILLE KY
700 PM EDT MON MAY 21 2018

NOTE "FAIR" INDICATES FEW OR NO CLOUDS BELOW 12,000 FEET
WITH NO SIGNIFICANT WEATHER AND/OR OBSTRUCTIONS TO VISIBILITY.

KYZ001>023-026-027-061>063-070>075-220000-
WESTERN AND SOUTH CENTRAL KENTUCKY

CITY           SKY/WX    TMP DP  RH WIND       PRES   REMARKS
PADUCAH        FAIR      81  68  64 NW6       29.99F
HENDERSON      NOT AVBL
OWENSBORO      FAIR      75  67  76 CALM      30.02F
HOPKINSVILLE   FAIR      79  72  78 NW3         N/A
BOWLING GREEN  TSTM      71  69  93 NW7G17    30.03R FOG
GLASGOW        NOT AVBL
$$

KYZ024-025-028>034-038-045-046-053-220000-
NORTH CENTRAL KENTUCKY

CITY           SKY/WX    TMP DP  RH WIND       PRES   REMARKS
LOUISVILLE/SDF PTSUNNY   84  67  56 SW8       30.00S
LOUISVILLE/LOU FAIR      84  68  58 SW10      30.00S
FORT KNOX      CLOUDY    81  67  62 SW6       30.02S
$$

KYZ035>037-039>044-047>052-055>060-089>105-220000-
NORTHEAST KENTUCKY

CITY           SKY/WX    TMP DP  RH WIND       PRES   REMARKS
LEXINGTON      PTSUNNY   83  67  58 SE9       30.03S
COVINGTON      CLOUDY    82  66  58 SW5       30.01S
FRANKFORT      HVY RAIN  73  65  75 NW12G21   30.01S VSB 1
$$

KYZ054-064>069-076>088-106>120-220000-
SOUTHEAST KENTUCKY

CITY           SKY/WX    TMP DP  RH WIND       PRES   REMARKS
JACKSON        FAIR      73  67  81 SE6       30.09F
LONDON         FAIR      79  66  64 E9        30.07S
SOMERSET       NOT AVBL
MIDDLESBORO    PTSUNNY   80  67  63 NE8       30.09S
MONTICELLO     MOCLDY    79  72  79 N14       30.06S
$$





USA.gov is the U.S. government's official web portal to all federal, state and local government web resources and services.